Annapolis Naval Academy, MD

11:17 AM EDT on May 25, 2017 (GMT -0400)
Annapolis Naval Academy

Weather History for KNAK - January, 2013

Change the Weather History Date:

Monday, January 7, 2013

  Actual Average (KBWI) Record (KBWI)
Temperature  
Mean Temperature 40 °F -  
Max Temperature 46 °F 41 °F 74 °F (1907)
Min Temperature 30 °F 26 °F 3 °F (2014)
Degree Days  
Heating Degree Days 26    
Moisture  
Dew Point 28 °F    
Average Humidity 63    
Maximum Humidity 89    
Minimum Humidity 46    
Precipitation  
Precipitation 0.00 in - - ()
Sea Level Pressure  
Sea Level Pressure 30.36 in    
Wind  
Wind Speed 6 mph (NW)    
Max Wind Speed 13 mph    
Max Gust Speed 20 mph    
Visibility 9 miles    
Events      
Averages and records for this station are not official NWS values.
T = Trace of Precipitation, MM = Missing Value Source: NWS Daily Summary

Daily Weather History Graph

Daily Weather History Graph

Search for Another Location

Airport or City:

Trip Planner

Search our weather history database for the weather conditions in past years. The results will help you decide how hot, cold, wet, or windy it might be!

Date:

Astronomy

Jan. 07, 2013 Rise Set
Actual Time 7:24 AM EST 5:00 PM EST
Civil Twilight 6:55 AM EST 5:29 PM EST
Nautical Twilight 6:22 AM EST 6:02 PM EST
Astronomical Twilight 5:49 AM EST 6:35 PM EST
Moon 2:46 AM EST (1/7) 1:08 PM EST (1/7)
Length of Visible Light 10h 34m
Length of Day
9h 35m
Waning Crescent, 23% of the Moon is Illuminated
Jan 7
Waning Crescent
Jan 11
New
Jan 18
First Quarter
Jan 26
Full
Feb 3
Last Quarter

Hourly Weather History & Observations

Time (EST) Temp. Windchill Dew Point Humidity Pressure Visibility Wind Dir Wind Speed Gust Speed Precip Events Conditions
12:54 AM 45.0 °F 41.2 °F 28.9 °F 53% 30.16 in 10.0 mi NW 6.9 mph - N/A   Overcast
1:54 AM 44.1 °F 40.8 °F 28.9 °F 55% 30.17 in 10.0 mi WNW 5.8 mph - N/A   Partly Cloudy
2:54 AM 43.0 °F 38.8 °F 30.0 °F 60% 30.19 in 10.0 mi NW 6.9 mph - N/A   Scattered Clouds
3:54 AM 43.0 °F 39.5 °F 28.9 °F 58% 30.21 in 10.0 mi WNW 5.8 mph - N/A   Mostly Cloudy
4:54 AM 42.1 °F 39.2 °F 30.0 °F 62% 30.24 in 10.0 mi NW 4.6 mph - N/A   Clear
5:54 AM 39.0 °F - 30.9 °F 73% 30.27 in 10.0 mi Calm Calm - N/A   Overcast
6:54 AM 42.1 °F 37.7 °F 30.9 °F 65% 30.31 in 10.0 mi NW 6.9 mph - N/A   Overcast
7:54 AM 41.0 °F 37.1 °F 28.0 °F 60% 30.34 in 10.0 mi WNW 5.8 mph - N/A   Clear
8:54 AM 43.0 °F 39.5 °F 27.0 °F 53% 30.38 in 10.0 mi NW 5.8 mph - N/A   Clear
9:54 AM 44.1 °F 37.7 °F 28.0 °F 53% 30.40 in 10.0 mi NW 12.7 mph - N/A   Clear
10:54 AM 45.0 °F 39.7 °F 27.0 °F 49% 30.42 in 10.0 mi NW 10.4 mph 19.6 mph N/A   Clear
11:54 AM 45.0 °F 38.9 °F 27.0 °F 49% 30.40 in 10.0 mi WNW 12.7 mph - N/A   Clear
12:54 PM 46.0 °F 40.6 °F 26.1 °F 46% 30.40 in 10.0 mi NW 11.5 mph - N/A   Clear
1:54 PM 46.0 °F 41.4 °F 26.1 °F 46% 30.40 in 10.0 mi NW 9.2 mph - N/A   Clear
3:54 PM 45.0 °F 42.6 °F 26.1 °F 48% 30.42 in 10.0 mi WNW 4.6 mph - N/A   Clear
4:54 PM 43.0 °F 41.3 °F 28.9 °F 58% 30.43 in 10.0 mi NNW 3.5 mph - N/A   Clear
5:54 PM 39.9 °F - 28.9 °F 65% 30.45 in 10.0 mi Calm Calm - N/A   Clear
6:54 PM 37.0 °F - 28.9 °F 73% 30.45 in 10.0 mi Calm Calm - N/A   Clear
7:54 PM 36.0 °F - 30.0 °F 79% 30.45 in 9.0 mi Calm Calm - N/A   Clear
8:54 PM 34.0 °F - 28.9 °F 82% 30.46 in 7.0 mi Calm Calm - N/A   Clear
9:54 PM 33.1 °F - 28.0 °F 82% 30.45 in 7.0 mi Calm Calm - N/A   Clear
10:54 PM 33.1 °F - 28.9 °F 85% 30.44 in 7.0 mi Calm Calm - N/A   Clear
11:54 PM 30.9 °F - 28.0 °F 89% 30.43 in 6.0 mi Calm Calm - N/A   Clear